N357L KPWM-

Flight info

Callsign N357L
Flight time N/A
Altitude VFR/035
Route
Aircraft DA40/L-VGD/C

Departure

Time 2026-05-04 21:09
Airport Portland International Jetport (KPWM)

Arrival

Time N/A
Airport -
Time Latitude Longitude Altitude Speed Heading
2026-05-04 20:55 43.64868 -70.30362 54 ft 0 kts 257°
2026-05-04 21:02 43.64871 -70.30350 54 ft 0 kts 168°
2026-05-04 21:02 43.64860 -70.30347 54 ft 7 kts 168°
2026-05-04 21:02 43.64816 -70.30367 55 ft 4 kts 255°
2026-05-04 21:02 43.64801 -70.30465 54 ft 18 kts 262°
2026-05-04 21:03 43.64773 -70.30672 54 ft 20 kts 247°
2026-05-04 21:03 43.64668 -70.30699 55 ft 18 kts 176°
2026-05-04 21:03 43.64567 -70.30658 54 ft 11 kts 118°
2026-05-04 21:03 43.64557 -70.30522 54 ft 18 kts 92°
2026-05-04 21:04 43.64543 -70.30310 51 ft 25 kts 95°
2026-05-04 21:04 43.64526 -70.30063 50 ft 27 kts 95°
2026-05-04 21:04 43.64501 -70.29920 44 ft 0 kts 149°
2026-05-04 21:04 43.64485 -70.29920 44 ft 0 kts 159°
2026-05-04 21:07 43.64473 -70.29916 43 ft 7 kts 170°
2026-05-04 21:07 43.64411 -70.29985 43 ft 15 kts 269°
2026-05-04 21:07 43.64412 -70.30010 43 ft 0 kts 276°
2026-05-04 21:08 43.64412 -70.30013 43 ft 4 kts 275°
2026-05-04 21:08 43.64438 -70.30392 55 ft 73 kts 275°
2026-05-04 21:08 43.64482 -70.31153 310 ft 82 kts 274°
2026-05-04 21:09 43.64530 -70.31948 614 ft 84 kts 274°
2026-05-04 21:09 43.64570 -70.32767 915 ft 87 kts 274°
2026-05-04 21:09 43.64774 -70.33557 1192 ft 93 kts 309°
2026-05-04 21:09 43.65381 -70.33912 1382 ft 107 kts 356°
2026-05-04 21:10 43.66161 -70.33720 1472 ft 120 kts 11°
2026-05-04 21:10 43.66977 -70.33443 1645 ft 119 kts 13°
2026-05-04 21:10 43.67711 -70.33174 2037 ft 98 kts 12°
2026-05-04 21:10 43.68328 -70.33186 2351 ft 89 kts 322°
2026-05-04 21:11 43.68798 -70.33761 2548 ft 96 kts 319°
2026-05-04 21:11 43.69381 -70.34399 2568 ft 115 kts 321°
2026-05-04 21:11 43.70055 -70.35089 2567 ft 125 kts 323°
2026-05-04 21:11 43.70770 -70.35782 2567 ft 129 kts 324°
2026-05-04 21:12 43.71514 -70.36486 2567 ft 131 kts 324°
2026-05-04 21:12 43.72269 -70.37193 2567 ft 131 kts 324°
2026-05-04 21:12 43.73028 -70.37901 2565 ft 132 kts 324°
2026-05-04 21:12 43.73791 -70.38611 2566 ft 132 kts 324°
2026-05-04 21:13 43.74554 -70.39321 2565 ft 132 kts 324°
2026-05-04 21:13 43.75316 -70.40031 2565 ft 132 kts 324°
2026-05-04 21:13 43.76075 -70.40738 2565 ft 131 kts 324°
2026-05-04 21:13 43.76823 -70.41434 2565 ft 131 kts 324°
2026-05-04 21:14 43.77579 -70.42138 2564 ft 130 kts 324°
2026-05-04 21:14 43.78333 -70.42841 2563 ft 131 kts 324°
2026-05-04 21:14 43.79086 -70.43541 2563 ft 131 kts 324°
2026-05-04 21:14 43.79843 -70.44248 2564 ft 131 kts 324°
2026-05-04 21:15 43.80602 -70.44958 2565 ft 132 kts 324°
2026-05-04 21:15 43.81363 -70.45667 2565 ft 132 kts 324°
2026-05-04 21:15 43.82120 -70.46372 2562 ft 128 kts 324°
2026-05-04 21:15 43.82849 -70.47051 2559 ft 125 kts 324°
2026-05-04 21:16 43.83556 -70.47711 2555 ft 123 kts 324°
2026-05-04 21:16 43.84265 -70.48374 2552 ft 122 kts 324°
2026-05-04 21:16 43.84968 -70.49031 2549 ft 121 kts 324°
2026-05-04 21:16 43.85666 -70.49683 2547 ft 121 kts 324°
2026-05-04 21:17 43.86361 -70.50334 2547 ft 121 kts 324°
2026-05-04 21:17 43.87056 -70.50983 2550 ft 120 kts 324°
2026-05-04 21:17 43.87751 -70.51634 2550 ft 121 kts 324°
2026-05-04 21:17 43.88449 -70.52286 2551 ft 121 kts 324°
2026-05-04 21:18 43.89139 -70.52931 2550 ft 121 kts 324°
2026-05-04 21:18 43.89838 -70.53588 2551 ft 122 kts 324°
2026-05-04 21:18 43.90539 -70.54244 2551 ft 122 kts 324°
2026-05-04 21:18 43.91240 -70.54900 2552 ft 122 kts 324°
2026-05-04 21:19 43.91942 -70.55558 2551 ft 122 kts 324°
2026-05-04 21:19 43.92641 -70.56212 2551 ft 121 kts 324°
2026-05-04 21:19 43.93335 -70.56864 2551 ft 121 kts 324°
2026-05-04 21:19 43.94029 -70.57514 2551 ft 120 kts 324°
2026-05-04 21:20 43.94716 -70.58159 2550 ft 121 kts 324°
2026-05-04 21:20 43.95413 -70.58813 2550 ft 121 kts 324°
2026-05-04 21:20 43.96110 -70.59467 2550 ft 121 kts 324°
2026-05-04 21:20 43.96808 -70.60122 2551 ft 121 kts 324°
2026-05-04 21:21 43.97507 -70.60779 2551 ft 122 kts 324°
2026-05-04 21:21 43.98210 -70.61438 2550 ft 122 kts 324°
2026-05-04 21:21 43.98911 -70.62097 2552 ft 122 kts 324°
2026-05-04 21:21 43.99610 -70.62755 2552 ft 122 kts 324°
2026-05-04 21:22 44.00302 -70.63405 2552 ft 122 kts 324°
2026-05-04 21:22 44.01001 -70.64062 2553 ft 121 kts 324°
2026-05-04 21:22 44.01701 -70.64720 2551 ft 121 kts 324°
2026-05-04 21:22 44.02398 -70.65377 2551 ft 121 kts 324°
2026-05-04 21:23 44.03093 -70.66031 2550 ft 121 kts 324°
2026-05-04 21:23 44.03789 -70.66686 2550 ft 121 kts 324°
2026-05-04 21:23 44.04483 -70.67340 2550 ft 121 kts 324°
2026-05-04 21:23 44.05178 -70.67995 2550 ft 121 kts 324°
2026-05-04 21:24 44.05862 -70.68639 2547 ft 120 kts 324°
2026-05-04 21:24 44.06553 -70.69290 2548 ft 120 kts 324°
2026-05-04 21:24 44.07246 -70.69943 2549 ft 120 kts 324°
2026-05-04 21:24 44.07941 -70.70599 2549 ft 121 kts 324°
2026-05-04 21:25 44.08639 -70.71258 2550 ft 121 kts 324°
2026-05-04 21:25 44.09337 -70.71917 2551 ft 121 kts 324°
2026-05-04 21:25 44.10035 -70.72575 2551 ft 122 kts 324°
2026-05-04 21:25 44.10737 -70.73240 2553 ft 122 kts 324°
2026-05-04 21:26 44.11442 -70.73905 2554 ft 122 kts 324°
2026-05-04 21:26 44.12136 -70.74559 2551 ft 121 kts 324°
2026-05-04 21:26 44.12831 -70.75216 2551 ft 121 kts 324°
2026-05-04 21:26 44.13526 -70.75875 2551 ft 121 kts 324°
2026-05-04 21:27 44.14226 -70.76537 2551 ft 122 kts 324°
2026-05-04 21:27 44.14929 -70.77200 2552 ft 122 kts 324°
2026-05-04 21:27 44.15630 -70.77866 2548 ft 121 kts 323°
2026-05-04 21:27 44.16314 -70.78512 2640 ft 114 kts 324°
2026-05-04 21:28 44.16917 -70.79081 3009 ft 99 kts 323°
2026-05-04 21:28 44.17527 -70.79663 3052 ft 117 kts 324°
2026-05-04 21:28 44.18233 -70.80331 3062 ft 126 kts 324°
2026-05-04 21:28 44.18970 -70.81027 3068 ft 130 kts 324°
2026-05-04 21:29 44.19724 -70.81741 3063 ft 132 kts 324°
2026-05-04 21:29 44.20484 -70.82462 3066 ft 133 kts 324°
2026-05-04 21:29 44.21241 -70.83178 3068 ft 128 kts 324°
2026-05-04 21:29 44.21982 -70.83881 3008 ft 128 kts 324°
2026-05-04 21:30 44.22709 -70.84572 3004 ft 125 kts 324°
2026-05-04 21:30 44.23425 -70.85252 3001 ft 124 kts 324°
2026-05-04 21:30 44.24130 -70.85921 3006 ft 124 kts 324°
2026-05-04 21:30 44.24843 -70.86599 3010 ft 124 kts 324°
2026-05-04 21:31 44.26269 -70.87955 3012 ft 125 kts 324°
2026-05-04 21:31 44.26988 -70.88639 3012 ft 125 kts 324°
2026-05-04 21:31 44.27706 -70.89320 3008 ft 124 kts 324°
2026-05-04 21:32 44.28413 -70.89993 3012 ft 123 kts 324°
2026-05-04 21:32 44.29124 -70.90671 3008 ft 124 kts 324°
2026-05-04 21:32 44.29824 -70.91339 3007 ft 124 kts 324°
2026-05-04 21:32 44.30535 -70.92016 3012 ft 124 kts 324°
2026-05-04 21:33 44.31250 -70.92696 3007 ft 124 kts 324°
2026-05-04 21:33 44.31959 -70.93372 3008 ft 124 kts 323°
2026-05-04 21:33 44.32676 -70.94052 3007 ft 125 kts 324°
2026-05-04 21:33 44.33395 -70.94738 3010 ft 126 kts 324°
2026-05-04 21:34 44.34116 -70.95427 3009 ft 125 kts 324°
2026-05-04 21:34 44.34837 -70.96113 3008 ft 125 kts 324°
2026-05-04 21:34 44.35540 -70.96783 3008 ft 124 kts 324°
2026-05-04 21:34 44.36250 -70.97461 3007 ft 124 kts 324°
2026-05-04 21:35 44.36962 -70.98141 3008 ft 124 kts 324°
2026-05-04 21:35 44.37603 -70.98753 3007 ft 126 kts 324°
2026-05-04 21:35 44.38323 -70.99441 3004 ft 124 kts 324°
2026-05-04 21:35 44.39035 -71.00120 3006 ft 124 kts 324°
2026-05-04 21:36 44.39748 -71.00802 3004 ft 124 kts 324°
2026-05-04 21:36 44.40462 -71.01487 3005 ft 125 kts 324°
2026-05-04 21:36 44.41166 -71.02161 3004 ft 124 kts 324°
2026-05-04 21:36 44.41877 -71.02839 3004 ft 123 kts 324°
2026-05-04 21:37 44.42586 -71.03516 3002 ft 123 kts 324°
2026-05-04 21:37 44.43295 -71.04195 3004 ft 124 kts 324°
2026-05-04 21:37 44.44006 -71.04877 3000 ft 123 kts 324°
2026-05-04 21:37 44.44797 -71.05325 2999 ft 124 kts 345°
2026-05-04 21:38 44.45638 -71.05619 2946 ft 126 kts 343°
2026-05-04 21:38 44.46461 -71.05928 2793 ft 119 kts 343°
2026-05-04 21:38 44.47195 -71.06361 2640 ft 115 kts 323°
2026-05-04 21:38 44.47844 -71.07010 2488 ft 115 kts 323°
2026-05-04 21:39 44.48500 -71.07646 2338 ft 114 kts 324°
2026-05-04 21:39 44.49153 -71.08280 2210 ft 117 kts 323°
2026-05-04 21:39 44.49830 -71.08956 2210 ft 121 kts 321°
2026-05-04 21:39 44.50476 -71.09717 2210 ft 122 kts 318°
2026-05-04 21:40 44.51092 -71.10528 2210 ft 121 kts 301°
2026-05-04 21:40 44.51347 -71.11637 2210 ft 120 kts 290°
2026-05-04 21:40 44.51653 -71.12716 2202 ft 123 kts 290°
2026-05-04 21:40 44.52042 -71.13774 2160 ft 122 kts 303°
2026-05-04 21:41 44.52592 -71.14600 2070 ft 109 kts 321°
2026-05-04 21:41 44.53207 -71.15127 1948 ft 100 kts 330°
2026-05-04 21:41 44.53808 -71.15532 1795 ft 92 kts 334°
2026-05-04 21:41 44.54359 -71.15862 1698 ft 81 kts 335°
2026-05-04 21:42 44.54859 -71.16148 1625 ft 77 kts 337°
2026-05-04 21:42 44.55373 -71.16423 1553 ft 83 kts 338°
2026-05-04 21:42 44.55916 -71.16717 1472 ft 85 kts 335°
2026-05-04 21:42 44.56467 -71.17016 1303 ft 84 kts 338°
2026-05-04 21:43 44.56995 -71.17302 1135 ft 76 kts 337°
2026-05-04 21:43 44.57437 -71.17538 1132 ft 61 kts 338°
2026-05-04 21:43 44.57811 -71.17739 1147 ft 66 kts 338°
2026-05-04 21:43 44.58321 -71.18006 1345 ft 82 kts 339°
2026-05-04 21:44 44.58849 -71.18279 1706 ft 79 kts 337°
2026-05-04 21:44 44.59347 -71.18571 2031 ft 81 kts 327°
2026-05-04 21:44 44.59527 -71.19283 2221 ft 93 kts 249°
2026-05-04 21:44 44.59189 -71.20154 2174 ft 106 kts 234°
2026-05-04 21:45 44.58538 -71.20414 2197 ft 106 kts 164°
2026-05-04 21:45 44.57849 -71.19995 2140 ft 110 kts 156°
2026-05-04 21:45 44.57161 -71.19520 2098 ft 110 kts 155°
2026-05-04 21:45 44.56490 -71.19034 2094 ft 108 kts 154°
2026-05-04 21:46 44.55865 -71.18546 2013 ft 100 kts 153°
2026-05-04 21:46 44.55241 -71.18098 1817 ft 101 kts 150°
2026-05-04 21:46 44.55045 -71.17320 1713 ft 90 kts 67°
2026-05-04 21:46 44.55365 -71.16621 1682 ft 80 kts 32°
2026-05-04 21:47 44.55904 -71.16710 1477 ft 87 kts 336°
2026-05-04 21:47 44.56453 -71.17010 1270 ft 83 kts 336°
2026-05-04 21:47 44.56974 -71.17293 1119 ft 74 kts 338°
2026-05-04 21:47 44.57420 -71.17528 1127 ft 63 kts 340°
2026-05-04 21:48 44.57705 -71.17686 1140 ft 34 kts 339°
2026-05-04 21:48 44.57756 -71.17805 1141 ft 6 kts 241°
2026-05-04 21:48 44.57753 -71.17813 1142 ft 4 kts 239°
2026-05-04 21:48 44.57700 -71.17805 1140 ft 10 kts 155°
2026-05-04 21:49 44.57687 -71.17816 1137 ft 0 kts 326°